{"data":{"norad_id":58966,"intl_designator":"2024-031B","name":"STARLINK-31449","alt_names":[],"object_type":"PAYLOAD","status":"ACTIVE","operator":null,"country":"US","launch_date":"2024-02-15","launch_site_code":"AFWTR","launch_vehicle":null,"mission":null,"orbit_class":"UNKNOWN","rcs_meters":null,"size_class":null,"mass_kg":null,"dimensions":null,"purposes":["comms"],"wikipedia_slug":null,"has_3d_model":false,"image_url":null,"decayed_at":null,"tle_current":{"epoch":"2026-09-19T23:43:24.284928Z","epoch_age_seconds":199946,"freshness":"STALE","line1":"1 58966U 24031B   26262.98847552  .00000381  00000+0  22393-4 0  9994","line2":"2 58966  53.1584 111.8973 0000768  90.5724 269.5366 15.34388392146318","mean_motion":15.34388392,"eccentricity":7.68e-5,"inclination_deg":53.1584,"raan_deg":111.8973,"arg_perigee_deg":90.5724,"mean_anomaly_deg":269.5366,"bstar":2.2393e-5,"rev_number":14631,"period_min":93.848468061143,"perigee_km":462.21236266672,"apogee_km":463.26312102706,"semimajor_km":6840.8747418469,"source":"CELESTRAK","updated_at":"2026-09-21T09:00:34.018515Z"}}}